Wind_Speed
38 38 39 39 39 39 38 38 38 39 39 39 39 40 40 41 42 43 44 44 43 42 41 40 38 37 35 34 32 31 29 27 27 26 25 25 25 25
38 39 40 40 40 40 40 40 40 40 40 41 40 41 41 40 42 43 44 44 44 43 42 41 39 38 36 34 33 31 29 28 27 25 24 24 24 23
39 39 39 40 41 41 42 42 41 41 40 41 42 42 42 42 43 44 45 45 44 43 43 42 40 39 37 35 33 31 30 28 27 25 24 23 23 22
39 39 40 41 42 42 42 43 43 43 42 42 43 43 44 43 44 45 46 46 45 45 44 43 41 40 38 37 34 32 30 29 27 26 24 23 22 22
38 39 40 41 42 43 44 44 45 45 44 43 44 44 44 45 45 45 47 48 47 46 45 45 44 41 40 38 35 33 31 30 28 26 24 23 22 21
38 39 40 41 42 44 45 45 46 47 47 46 46 46 46 46 45 46 47 48 48 48 47 46 45 43 41 39 37 35 32 30 28 26 24 23 22 21
37 38 40 41 42 44 45 46 47 48 48 48 49 49 48 47 47 46 47 49 50 50 50 48 46 44 43 41 38 36 33 31 29 27 25 23 21 20
38 39 40 41 42 44 45 47 48 49 49 49 50 51 49 51 49 46 47 48 50 51 51 50 48 46 44 42 40 38 35 32 30 27 25 23 21 19
37 38 39 40 41 43 45 47 49 51 52 52 51 52 51 52 52 49 47 47 50 52 53 52 51 48 46 44 42 39 36 34 31 28 25 23 21 19
37 38 38 39 40 42 44 46 49 52 53 54 53 54 55 53 53 51 49 48 50 52 54 53 52 50 48 46 43 41 38 35 32 29 26 23 21 20
36 37 37 38 39 41 43 45 48 51 54 55 56 56 57 57 55 53 52 51 50 51 53 54 53 51 50 48 45 42 39 36 33 30 27 25 23 21
34 34 35 36 37 39 42 44 46 50 54 56 57 57 58 59 56 55 54 53 51 50 52 54 55 53 51 49 47 44 41 38 35 32 29 27 24 22
31 31 31 33 34 36 39 42 46 49 53 56 57 59 60 60 59 57 55 55 53 50 52 54 55 55 52 50 48 46 43 40 37 35 32 28 26 24
28 28 28 30 32 34 37 40 44 47 51 54 57 58 60 61 60 58 56 56 54 51 52 53 55 56 54 52 50 48 46 43 40 37 34 30 28 25
25 25 25 26 27 29 33 36 41 45 48 52 55 57 59 61 62 60 58 58 55 54 54 54 56 56 56 55 53 51 48 46 43 40 36 33 30 27
23 22 22 21 22 24 27 30 35 41 46 50 53 55 58 60 62 61 59 58 57 56 55 55 56 57 56 57 56 53 51 48 45 42 39 36 32 29
20 18 17 16 17 19 22 25 30 34 40 45 49 52 55 57 60 61 60 59 58 55 56 55 54 55 57 56 57 55 52 49 47 44 41 37 35 31
16 15 13 13 13 13 16 20 24 29 35 40 45 48 52 55 58 59 59 59 57 57 56 56 55 54 55 55 55 54 52 49 47 45 42 39 37 34
14 13 11 10 9 9 12 16 21 25 30 35 40 44 48 52 55 57 57 58 57 57 55 55 55 53 52 53 53 52 50 49 47 45 43 41 39 36
13 11 10 8 7 7 9 12 17 22 26 31 35 39 44 48 52 54 55 56 56 55 53 54 55 53 50 51 51 51 50 48 47 46 45 43 41 37
13 10 8 7 5 5 6 9 14 19 23 27 31 35 40 45 49 52 53 54 55 55 53 53 53 53 51 51 52 52 51 50 49 48 46 44 41 39
11 9 7 5 4 3 4 7 12 15 19 24 28 33 38 42 46 48 51 53 54 53 51 51 52 53 52 50 50 50 51 51 49 48 46 44 42 40
10 7 5 4 2 1 3 6 9 13 16 21 25 31 36 39 42 45 48 51 53 53 51 50 51 51 50 50 50 50 50 49 48 46 45 44 43 41
Wind_Direction
265 262 259 257 254 251 248 244 241 239 237 235 232 230 228 227 226 225 222 222 222 222 222 223 223 224 223 224 225 225 225 227 229 231 232 236 238 242
266 262 258 255 252 250 247 244 241 237 235 234 232 230 228 226 225 223 221 221 222 221 221 221 222 222 222 222 223 223 224 224 226 229 231 234 238 241
268 263 258 254 251 249 247 244 241 237 234 233 232 231 227 225 223 221 221 221 220 220 220 220 219 220 220 220 220 221 221 222 223 226 230 233 237 241
268 264 259 255 251 249 247 244 241 237 233 231 231 231 228 226 222 220 219 219 218 218 218 218 217 217 218 218 218 219 219 220 221 223 227 231 235 241
269 265 260 255 252 249 246 243 241 238 234 230 229 229 228 225 223 221 219 218 217 217 216 216 216 216 216 216 216 217 216 217 219 221 224 230 235 241
270 266 261 257 252 249 246 243 240 237 234 230 228 227 227 224 222 221 219 217 216 215 215 216 215 214 214 214 215 214 214 216 217 219 223 228 234 239
272 267 263 258 253 249 246 242 239 236 233 230 228 227 225 223 221 221 219 217 216 215 215 214 213 213 213 213 213 214 214 214 216 218 222 228 233 238
273 269 264 259 255 250 245 242 238 235 232 230 227 226 225 223 220 220 220 218 216 215 214 213 212 212 212 213 213 213 213 214 215 218 221 226 231 236
276 271 266 260 256 251 245 241 238 235 231 229 226 224 223 223 220 218 219 219 217 215 214 212 211 211 212 212 212 212 212 213 215 217 220 224 229 233
278 272 266 262 257 252 247 242 238 234 231 229 226 224 222 221 220 218 216 219 218 215 213 212 211 210 211 211 211 211 212 213 215 216 219 223 228 231
281 274 267 262 257 252 247 242 237 233 230 227 225 223 222 220 218 217 216 216 218 216 213 212 210 210 210 211 211 211 212 213 214 216 219 223 226 230
285 278 270 263 257 252 246 240 237 233 230 227 225 222 222 220 218 217 216 215 216 216 213 212 210 210 210 211 211 212 212 213 214 216 219 222 226 230
289 282 273 265 259 253 246 240 236 232 228 225 223 222 221 219 218 216 216 216 214 214 212 211 211 210 211 211 212 212 212 213 214 217 219 222 225 229
293 285 276 268 262 255 247 241 235 231 228 224 222 220 219 218 216 215 216 215 214 213 212 212 211 210 210 211 211 212 213 214 215 218 220 222 225 229
297 290 281 272 264 256 248 241 235 230 226 223 220 219 218 216 214 214 214 214 214 212 211 211 210 209 209 210 211 212 213 215 216 218 221 223 225 228
303 297 287 275 266 257 247 239 233 227 224 221 219 217 217 216 213 212 212 212 212 211 210 211 211 209 209 210 211 212 214 215 217 219 221 224 226 229
309 303 293 284 273 260 246 236 229 223 220 219 218 217 215 214 213 211 211 211 211 210 209 209 210 209 210 211 212 213 215 217 219 220 222 225 227 231
316 310 302 293 279 259 240 229 223 219 217 216 216 215 214 213 212 210 210 210 210 209 209 210 211 210 210 212 213 214 216 218 220 222 224 226 229 232
322 316 310 301 287 261 236 222 216 214 213 212 212 212 212 211 210 210 210 209 209 208 210 212 211 209 211 212 213 215 217 219 221 223 225 227 230 233
327 322 316 307 290 264 234 219 213 209 209 209 209 209 209 209 208 208 208 208 207 207 209 211 211 210 211 211 212 214 216 218 220 222 225 228 230 233
331 326 323 315 301 271 238 217 208 204 203 204 204 206 206 206 206 207 206 207 207 205 207 209 210 209 210 210 211 212 215 217 219 222 225 227 230 233
334 331 328 321 303 258 232 213 204 201 200 199 201 203 202 202 203 204 205 206 208 206 206 206 209 210 211 212 212 214 216 219 222 224 226 229 231 234
339 334 332 325 314 216 207 200 195 196 197 198 198 198 198 199 201 202 204 204 206 207 206 207 209 209 210 211 213 214 215 219 222 224 226 229 232 235
Height
5722 5723 5725 5726 5728 5731 5735 5739 5743 5746 5750 5755 5759 5763 5768 5773 5779 5785 5791 5797 5803 5809 5815 5821 5827 5833 5838 5843 5847 5851 5855 5859 5863 5867 5870 5873 5876 5879
5710 5711 5713 5714 5717 5719 5723 5727 5731 5736 5740 5745 5749 5753 5758 5764 5769 5776 5782 5788 5795 5801 5807 5814 5820 5826 5831 5836 5841 5845 5850 5854 5858 5862 5865 5868 5871 5873
5698 5699 5700 5702 5705 5707 5711 5715 5719 5724 5730 5734 5738 5743 5748 5754 5760 5766 5773 5779 5786 5793 5799 5806 5812 5818 5824 5830 5835 5840 5844 5848 5852 5856 5860 5863 5866 5868
5685 5686 5687 5689 5692 5695 5699 5703 5707 5712 5719 5724 5728 5733 5738 5744 5750 5757 5763 5770 5777 5784 5791 5797 5804 5811 5817 5823 5829 5834 5839 5843 5847 5851 5855 5858 5861 5863
5672 5672 5674 5676 5679 5682 5685 5690 5695 5700 5706 5713 5718 5722 5728 5734 5740 5747 5753 5760 5768 5775 5782 5789 5796 5804 5810 5817 5822 5828 5833 5838 5842 5846 5850 5853 5856 5858
5658 5659 5660 5662 5664 5668 5672 5676 5681 5687 5693 5700 5706 5712 5718 5724 5730 5737 5744 5750 5758 5765 5773 5781 5788 5796 5803 5810 5816 5822 5827 5832 5837 5841 5844 5848 5851 5853
5645 5645 5645 5647 5649 5653 5657 5662 5667 5673 5680 5687 5694 5700 5707 5713 5720 5727 5734 5740 5748 5755 5764 5772 5780 5788 5795 5803 5809 5815 5821 5827 5831 5836 5839 5843 5846 5848
5631 5630 5631 5632 5634 5637 5642 5647 5652 5659 5666 5673 5681 5688 5695 5702 5709 5716 5723 5731 5739 5747 5755 5763 5771 5780 5788 5795 5802 5809 5815 5821 5826 5830 5834 5837 5840 5843
5616 5616 5616 5617 5619 5622 5626 5631 5637 5644 5652 5660 5667 5675 5683 5691 5698 5706 5713 5721 5729 5737 5745 5753 5762 5771 5780 5788 5795 5802 5809 5815 5820 5824 5828 5832 5835 5838
5602 5601 5601 5602 5603 5606 5610 5616 5622 5629 5637 5645 5654 5662 5669 5678 5686 5695 5702 5711 5718 5726 5735 5744 5753 5763 5772 5780 5788 5795 5802 5809 5814 5819 5823 5827 5830 5833
5587 5586 5586 5587 5588 5591 5595 5600 5606 5613 5620 5629 5638 5647 5656 5665 5674 5683 5692 5700 5708 5717 5726 5736 5745 5754 5763 5772 5780 5788 5795 5802 5807 5813 5817 5821 5825 5828
5574 5572 5571 5572 5573 5575 5579 5585 5591 5597 5604 5613 5623 5632 5642 5651 5661 5671 5681 5690 5699 5708 5717 5727 5736 5745 5755 5764 5773 5781 5788 5795 5801 5806 5811 5816 5819 5823
5562 5560 5558 5558 5559 5561 5565 5569 5575 5581 5588 5597 5607 5617 5627 5638 5649 5659 5669 5679 5689 5699 5708 5717 5727 5737 5747 5757 5765 5773 5781 5788 5794 5799 5805 5809 5813 5817
5551 5549 5547 5546 5547 5548 5551 5555 5560 5566 5574 5583 5593 5604 5614 5626 5636 5647 5657 5668 5678 5688 5697 5707 5717 5728 5738 5747 5757 5765 5772 5780 5786 5793 5798 5803 5807 5811
5541 5539 5537 5535 5535 5536 5537 5541 5546 5552 5561 5570 5580 5591 5601 5612 5622 5634 5646 5657 5667 5677 5687 5697 5707 5717 5727 5737 5747 5756 5764 5771 5778 5785 5791 5796 5801 5805
5533 5530 5528 5526 5525 5525 5527 5529 5534 5540 5548 5557 5567 5577 5587 5598 5611 5623 5635 5646 5657 5667 5678 5687 5697 5708 5718 5728 5737 5746 5755 5763 5771 5778 5784 5789 5794 5799
5526 5523 5521 5519 5518 5517 5518 5521 5525 5531 5538 5546 5556 5566 5577 5588 5600 5612 5625 5636 5648 5659 5669 5679 5688 5698 5709 5718 5728 5738 5747 5756 5763 5770 5777 5782 5787 5792
5522 5519 5517 5515 5513 5513 5513 5515 5519 5525 5531 5539 5548 5557 5568 5579 5590 5603 5615 5627 5638 5649 5660 5670 5680 5691 5701 5711 5721 5731 5740 5748 5756 5763 5770 5775 5780 5785
5518 5516 5513 5512 5510 5510 5510 5512 5516 5520 5526 5533 5542 5550 5560 5571 5581 5594 5606 5618 5629 5640 5651 5661 5672 5683 5694 5704 5714 5723 5732 5741 5748 5755 5761 5767 5772 5778
5516 5513 5511 5510 5508 5508 5508 5510 5513 5517 5523 5529 5537 5545 5554 5564 5575 5586 5599 5610 5622 5633 5644 5654 5665 5676 5686 5696 5705 5714 5723 5731 5739 5746 5752 5757 5764 5770
5515 5512 5510 5509 5508 5507 5508 5509 5511 5515 5520 5526 5533 5541 5550 5559 5569 5581 5592 5603 5614 5626 5637 5647 5657 5668 5677 5686 5695 5704 5713 5721 5729 5736 5742 5749 5755 5761
5514 5511 5510 5508 5507 5507 5508 5509 5511 5515 5519 5524 5530 5538 5546 5555 5564 5575 5586 5597 5608 5619 5629 5639 5648 5659 5669 5679 5688 5696 5704 5712 5720 5727 5735 5742 5747 5752
5513 5511 5510 5509 5508 5508 5509 5510 5512 5515 5518 5523 5528 5535 5543 5551 5561 5570 5581 5591 5602 5612 5622 5632 5642 5651 5661 5671 5680 5688 5696 5704 5712 5720 5727 5732 5738 5744